Weather in Razdolnoye

Russia / Stavropol Krai     45°19′46″N   41°17′42″E
temp.,
°C
wind,
m/s
gust,
m/s
humid.,
%
clouds,
%
prec.,
mm/h
press.,
hPa
HPBL,
m
15 may, sat
sat1500:00+19sw2285100 0.0 101116
03:00+17sw369619 0.0 1011109
06:00+16sw48942 0.0 1013200
09:00+21w568010 0.0 1014446
12:00+24wnw44725 0.0 1014747
15:00+26nnw33645 0.0 1013976
18:00+25wnw1174100 0.0 101320
21:00+20nne2286100 0.6 101215
16 may, sun
sun1600:00+18ne33935 0.1 101137
03:00+18ene229516 0.1 101136
06:00+19e11925 0.0 101045
09:00+23ne227526 0.0 1009521
12:00+26ene346350 0.0 10081050
15:00+28e676279 0.0 10061589
18:00+24e5969100 0.0 1005241
21:00+19ene497495 0.0 1004144
17 may, mon
mon1700:00+17e4758100 0.0 1003105
03:00+16ese3368100 0.0 100338
06:00+17sse248127 0.0 100478
09:00+23sw337743 0.0 1005501
12:00+23nw787393 0.0 1007955
15:00+24wnw666498 0.1 10081329
18:00+19wnw4982100 0.3 1008286
21:00+16wsw5995100 1.1 1011246
18 may, tue
tue1800:00+16w5999100 3.2 1010329
03:00+15w489883 4.5 1011395
06:00+14wsw3697100 2.5 1014304
09:00+17w5684100 3.1 1013555
12:00+20w576735 0.0 10141189
15:00+22wnw456050 0.1 10131676
18:00+20w3573100 0.1 1014244
21:00+16wsw3489100 0.1 101561
19 may, wed
wed1900:00+13wsw34903 0.0 101550
03:00+13s22865 0.0 101516
06:00+15se12855 0.0 101645
09:00+21se34705 0.0 1015619
12:00+24se33565 0.0 10141232
15:00+26ese345223 0.0 10121470
18:00+24ese377155 0.0 1011226
21:00+19ese512810 0.0 1011222